NIEUW!!! Volg onze weer- en natuurfoto's op Instagram @ weerstationmaaseik.be

WS Maaseik 1 Meer informatie WS Maaseik 1


WS Maaseik 2 Meer informatie WS Maaseik 2


Regen radar Meer informatie rain snow radar


Bezoek onze andere website:

Vorige versie
weerstation Maaseik


Bezoek ook eens deze sites:

Weerstation Geleen



Het weer levert geen direct gevaar op.    Er zijn geen waarschuwingen afgegeven.

15 daagse weersverwachting Marseille (FR)

  • Overzicht
  • Per uur
  • 15 dagen
  • Extra
  • Vergelijk
  • Kaarten
  • Dagkaart
  • Meer »
  • Info
  • Statistieken
  • Directe link
    Temp 6h Neerslag Wind  
 07:25     19:38    Daglengte: 12:13 Vandaag
20:00
21°
1.1 mm
2
 07:26     19:36    Daglengte: 12:10 Morgen
02:00
19°
0.7 mm
2
08:00
19°
 
2
14:00
24°
 
3
20:00
21°
1.1 mm
2
 07:28     19:35    Daglengte: 12:07 Dinsdag 22 Sep
02:00
19°
1.2 mm
1
warningclass
08:00
18°
1.3 mm
2
14:00
21°
8.0 mm
2
warningclass
20:00
19°
10.8 mm
1
 07:29     19:33    Daglengte: 12:04 Woensdag 23 Sep
02:00
18°
10.8 mm
2
warningclass
08:00
18°
6.6 mm
2
Locatie info
Region:
Latitude: 43.2970°N
Longitude: 5.3811°E
28 masl
Temp/Neerslag /Baro Onweer/Dauwpunt
    Temp Baro 1h Neerslag Dauwpunt Wind UV Bewolking  
 07:25     19:38    Daglengte: 12:13 Vandaag
15:00
23°
1013.3 hPa
50%
19.2°
3
Windvlaag: 2.8 m/s
45%
16:00
23°
1013.1 hPa 0.5 mm
82%
18.8°
2
Windvlaag: 1.9 m/s
32% warningclass
17:00
23°
1012.9 hPa 0.3 mm
82%
18.4°
2
Windvlaag: 1.3 m/s
21% warningclass
18:00
23°
1012.9 hPa
74%
18.3°
2
Windvlaag: 1.2 m/s
16%
19:00
22°
1013.3 hPa 0.2 mm
69%
18.4°
2
Windvlaag: 1.1 m/s
10% warningclass
20:00
21°
1013.6 hPa
18%
18.9°
2
Windvlaag: 0.5 m/s
7%
21:00
21°
1014.4 hPa
32%
18.7°
2
Windvlaag: 0.2 m/s
7%
22:00
21°
1014.8 hPa 0.3 mm
65%
18.4°
2
Windvlaag: 0.2 m/s
19% warningclass
23:00
20°
1015.0 hPa 0.5 mm
66%
18.5°
2
Windvlaag: 0.1 m/s
20% warningclass
 07:26     19:36    Daglengte: 12:10 Morgen
00:00
20°
1015.1 hPa
30%
18.7°
2
Windvlaag: -0.1 m/s
17%
01:00
20°
1015.0 hPa
24%
18.2°
1
Windvlaag: -0.2 m/s
14%
02:00
19°
1014.9 hPa
25%
18.1°
2
Windvlaag: -0.2 m/s
22%
03:00
19°
1014.6 hPa
27%
17.8°
2
Windvlaag: -0 m/s
42%
04:00
19°
1014.4 hPa
23%
17.5°
2
Windvlaag: -0.1 m/s
22%
05:00
19°
1014.3 hPa
17%
17.4°
2
Windvlaag: -0.3 m/s
16%
06:00
19°
1014.2 hPa
15%
17.3°
2
Windvlaag: -0.1 m/s
23%
07:00
18°
1014.3 hPa
14%
17.3°
2
Windvlaag: -0.1 m/s
22%
08:00
19°
1014.6 hPa
14%
17.4°
2
Windvlaag: -0.2 m/s
10%
09:00
20°
1015.0 hPa
15%
17.8°
2
Windvlaag: -0.2 m/s
13%
10:00
22°
1015.2 hPa
14%
18.1°
1
Windvlaag: -0.1 m/s
13%
11:00
23°
1015.4 hPa
14%
18.0°
1
Windvlaag: 0.7 m/s
22%
12:00
23°
1015.5 hPa
14%
17.7°
2
Windvlaag: 1.7 m/s
15%
13:00
24°
1015.6 hPa
15%
17.9°
3
Windvlaag: 2 m/s
16%
14:00
24°
1015.3 hPa
14%
18.2°
3
Windvlaag: 2.4 m/s
7%
15:00
24°
1015.1 hPa
15%
18.0°
4
Windvlaag: 2.5 m/s
28%
16:00
23°
1014.7 hPa 1.1 mm
51%
18.5°
3
Windvlaag: 2.5 m/s
27% warningclass
17:00
23°
1014.4 hPa
14%
17.6°
3
Windvlaag: 2.1 m/s
16%
18:00
22°
1014.3 hPa
14%
17.7°
3
Windvlaag: 1.5 m/s
14%
19:00
22°
1014.5 hPa
15%
17.6°
2
Windvlaag: 0.8 m/s
20%
20:00
21°
1014.7 hPa
16%
18.0°
2
Windvlaag: 0.7 m/s
22%
21:00
21°
1015.0 hPa
14%
17.8°
1
Windvlaag: 0.6 m/s
22%
22:00
21°
1015.4 hPa
18%
17.5°
1
Windvlaag: 0.3 m/s
39%
23:00
20°
1015.4 hPa
22%
17.3°
1
Windvlaag: 0.2 m/s
27%
 07:28     19:35    Daglengte: 12:07 Dinsdag 22 Sep
00:00
20°
1015.2 hPa
23%
17.1°
2
Windvlaag: 0.1 m/s
38%
01:00
19°
1014.9 hPa
22%
17.0°
2
Windvlaag: 0.1 m/s
44%
02:00
19°
1014.6 hPa 1.2 mm
29%
17.2°
1
Windvlaag: 0.1 m/s
55% warningclass
03:00
19°
1014.3 hPa 1.3 mm
24%
17.0°
1
Windvlaag: -0.2 m/s
61% warningclass
04:00
19°
1013.9 hPa
27%
17.2°
2
Windvlaag: -0.2 m/s
77%
05:00
18°
1013.8 hPa
35%
17.3°
2
Windvlaag: -0.1 m/s
73%
06:00
18°
1013.8 hPa
27%
16.8°
2
Windvlaag: 0 m/s
78%
07:00
18°
1013.7 hPa
29%
16.4°
2
Windvlaag: 0.4 m/s
78%
08:00
18°
1013.7 hPa
27%
16.8°
2
Windvlaag: 0.1 m/s
83%
09:00
19°
1013.8 hPa
29%
17.3°
2
Windvlaag: 0.1 m/s
73%
10:00
20°
1014.1 hPa
36%
17.8°
1
Windvlaag: 0.1 m/s
63%
11:00
20°
1014.7 hPa 2.8 mm
100%
17.4°
3
Windvlaag: 1.6 m/s
85% warningclass
12:00
21°
1014.6 hPa 1.5 mm
100%
19.0°
2
Windvlaag: 2 m/s
87% warningclass
13:00
20°
1014.4 hPa 2.0 mm
100%
18.7°
2
Windvlaag: 2.1 m/s
83% warningclass
14:00
21°
1013.8 hPa 1.7 mm
100%
18.7°
2
Windvlaag: 1.9 m/s
84% warningclass
15:00
21°
1013.3 hPa 1.6 mm
100%
18.3°
2
Windvlaag: 1.9 m/s
60% warningclass
16:00
21°
1012.7 hPa 2.0 mm
100%
17.9°
2
Windvlaag: 1.7 m/s
60%
17:00
21°
1012.3 hPa 1.5 mm
100%
17.9°
2
Windvlaag: 1.6 m/s
55%
18:00
21°
1012.2 hPa 1.8 mm
95%
17.9°
2
Windvlaag: 1.1 m/s
73% warningclass
19:00
20°
1012.1 hPa 2.1 mm
100%
17.7°
1
Windvlaag: 1.1 m/s
30% warningclass
20:00
19°
1012.2 hPa 1.8 mm
100%
17.4°
1
Windvlaag: 1.4 m/s
29%
21:00
19°
1012.6 hPa 2.0 mm
97%
16.8°
1
Windvlaag: 1.2 m/s
54% warningclass
22:00
19°
1013.0 hPa 2.1 mm
94%
16.8°
2
Windvlaag: 1 m/s
58% warningclass
23:00
19°
1013.1 hPa 2.5 mm
94%
16.6°
2
Windvlaag: 0.6 m/s
63% warningclass
 07:29     19:33    Daglengte: 12:04 Woensdag 23 Sep
00:00
19°
1012.9 hPa 2.2 mm
94%
16.3°
2
Windvlaag: 0.2 m/s
82% warningclass
01:00
19°
1012.7 hPa 2.1 mm
88%
16.5°
2
Windvlaag: 0.3 m/s
92% warningclass
02:00
18°
1012.5 hPa
83%
16.8°
2
Windvlaag: 0.4 m/s
73%
03:00
18°
1012.2 hPa
38%
16.8°
2
Windvlaag: 0.7 m/s
50%
04:00
18°
1011.9 hPa 3.3 mm
36%
16.9°
2
Windvlaag: 0.6 m/s
68% warningclass
05:00
18°
1011.6 hPa 3.3 mm
27%
16.9°
2
Windvlaag: 0.5 m/s
48% warningclass
06:00
18°
1011.4 hPa
23%
17.0°
2
Windvlaag: 0.2 m/s
28%
07:00
18°
1011.2 hPa
21%
17.0°
2
Windvlaag: 0.2 m/s
72%
08:00
18°
1011.1 hPa
21%
17.0°
2
Windvlaag: -0.1 m/s
44%
09:00
19°
1010.9 hPa
21%
17.0°
1
Windvlaag: 3.5 m/s
37%
10:00
20°
1011.0 hPa
21%
16.9°
1
Windvlaag: 4.2 m/s
30%
11:00
21°
1011.0 hPa
21%
17.0°
2
Windvlaag: 4.9 m/s
23%
12:00
21°
1011.0 hPa
21%
16.9°
2
Windvlaag: 5.2 m/s
16%
13:00
22°
1011.0 hPa
21%
16.7°
3
Windvlaag: 5.8 m/s
15%
14:00
22°
1010.9 hPa
21%
16.2°
3
Windvlaag: 0.8 m/s
2%
Temp/Neerslag /Baro Onweer/Dauwpunt
    Temp Baro Neerslag Dauwpunt Wind Bewolking  
 07:25     19:38    Daglengte: 12:13 Vandaag
17:00
23°
1012.9 hPa 0.8 mm 18.4°
2
21% warningclass
20:00
21°
1013.6 hPa 0.2 mm 18.9°
2
7%
23:00
20°
1015.0 hPa 0.7 mm 18.5°
2
20% warningclass
 07:26     19:36    Daglengte: 12:10 Morgen
02:00
19°
1014.9 hPa   18.1°
2
22%
05:00
19°
1014.3 hPa   17.4°
2
16%
08:00
19°
1014.6 hPa   17.4°
2
10%
11:00
23°
1015.4 hPa   18.0°
1
22%
14:00
24°
1015.3 hPa   18.2°
3
7%
17:00
23°
1014.4 hPa 1.1 mm 17.6°
3
16%
20:00
21°
1014.7 hPa   18.0°
2
22%
23:00
20°
1015.4 hPa   17.3°
1
27%
 07:28     19:35    Daglengte: 12:07 Dinsdag 22 Sep
02:00
19°
1014.6 hPa 1.2 mm 17.2°
1
55% warningclass
05:00
18°
1013.8 hPa 1.3 mm 17.3°
2
73%
08:00
18°
1013.7 hPa   16.8°
2
83%
11:00
20°
1014.7 hPa 2.8 mm 17.4°
3
85% warningclass
14:00
21°
1013.8 hPa 5.2 mm 18.7°
2
84% warningclass
17:00
21°
1012.3 hPa 5.2 mm 17.9°
2
55%
20:00
19°
1012.2 hPa 5.7 mm 17.4°
1
29%
23:00
19°
1013.1 hPa 6.5 mm 16.6°
2
63% warningclass
 07:29     19:33    Daglengte: 12:04 Woensdag 23 Sep
02:00
18°
1012.5 hPa 4.3 mm 16.8°
2
73% warningclass
05:00
18°
1011.6 hPa 6.6 mm 16.9°
2
48% warningclass
08:00
18°
1011.1 hPa   17.0°
2
44%
11:00
21°
1011.0 hPa   17.0°
2
23%
14:00
22°
1010.9 hPa   16.2°
3
2%
17:00
20°
1010.5 hPa 15.3 mm 16.5°
2
2%
20:00
19°
1010.3 hPa 15.3 mm 16.5°
2
1%
23:00
19°
1010.9 hPa 15.3 mm 16.8°
2
28%
 07:30     19:31    Daglengte: 12:01 Donderdag 24 Sep
02:00
19°
1011.5 hPa 15.3 mm 17.0°
2
55%
05:00
19°
1011.2 hPa 15.3 mm 17.1°
2
68%
08:00
18°
1011.0 hPa 15.4 mm 17.1°
3
80%
11:00
21°
1011.2 hPa 16.4 mm 16.5°
4
63%
14:00
23°
1011.4 hPa 20.7 mm 14.5°
5
46%
17:00
22°
1010.6 hPa 24.4 mm 13.9°
5
46%
20:00
21°
1009.9 hPa 26.7 mm 13.4°
4
45%
23:00
19°
1010.3 hPa 31.9 mm 12.8°
5
43%
 07:31     19:29    Daglengte: 11:58 Vrijdag 25 Sep
02:00
17°
1010.5 hPa 32.8 mm 11.7°
6
42%
05:00
16°
1009.4 hPa 33.0 mm 11.2°
6
21%
08:00
16°
1008.4 hPa 33.0 mm 10.7°
7
1%
11:00
16°
1008.5 hPa 33.0 mm 7.7°
9
5%
14:00
17°
1008.5 hPa 33.0 mm 3.4°
11
10%
17:00
16°
1008.9 hPa 33.0 mm 3.0°
11
5%
20:00
15°
1009.4 hPa 33.0 mm 2.4°
12
0%
23:00
14°
1010.0 hPa 33.0 mm 3.7°
11
0%
 07:32     19:27    Daglengte: 11:55 Zaterdag 26 Sep
02:00
13°
1010.5 hPa 33.0 mm 4.5°
11
1%
05:00
12°
1009.7 hPa 33.0 mm 4.1°
10
0%
08:00
11°
1009.0 hPa 33.0 mm 3.7°
10
0%
11:00
14°
1008.0 hPa 33.0 mm 3.4°
11
17%
14:00
16°
1007.0 hPa 33.0 mm 2.3°
11
34%
17:00
16°
1006.6 hPa 33.0 mm 2.2°
9
20%
20:00
15°
1006.5 hPa 33.0 mm 2.3°
6
6%
23:00
14°
1006.4 hPa 33.0 mm 2.0°
7
32%
 07:33     19:25    Daglengte: 11:52 Zondag 27 Sep
02:00
13°
1006.2 hPa 33.0 mm 1.8°
7
59%
05:00
12°
1006.9 hPa 33.0 mm 2.5°
8
29%
08:00
11°
1007.8 hPa 33.0 mm 3.0°
8
0%
11:00
14°
1009.1 hPa 35.8 mm 3.7°
8
0%
14:00
17°
1010.3 hPa 74.7 mm 3.5°
8
0%
20:00
14°
1011.5 hPa 78.5 mm 4.1°
8
0%
 07:34     19:24    Daglengte: 11:50 Maandag 28 Sep
02:00
12°
1013.9 hPa 78.5 mm 4.6°
4
0%
08:00
10°
1013.7 hPa 78.5 mm 4.0°
3
0%
14:00
20°
1013.9 hPa 78.5 mm 4.3°
4
0%
20:00
16°
1014.4 hPa 78.5 mm 8.1°
3
0%
 07:35     19:22    Daglengte: 11:47 Dinsdag 29 Sep
02:00
12°
1014.8 hPa 78.5 mm 8.8°
1
0%
08:00
10°
1015.3 hPa 78.5 mm 8.6°
1
4%
14:00
19°
1016.2 hPa 78.5 mm 8.5°
3
34%
20:00
16°
1016.1 hPa 78.5 mm 10.8°
2
0%
 07:37     19:20    Daglengte: 11:43 Woensdag 30 Sep
02:00
21°
1015.1 hPa 78.5 mm 16.5°
2
1%
08:00
20°
1014.0 hPa 78.5 mm 15.0°
2
0%
14:00
21°
1015.7 hPa 0.5 mm 13.0°
3
26%
20:00
20°
1014.9 hPa 0.6 mm 13.2°
3
27%
 07:38     19:18    Daglengte: 11:40 Donderdag 01 Okt
02:00
18°
1015.3 hPa 0.9 mm 12.7°
3
23%
08:00
17°
1014.7 hPa 0.4 mm 12.1°
3
19%
14:00
21°
1014.7 hPa 0.5 mm 12.5°
3
23%
20:00
20°
1014.2 hPa 0.7 mm 12.8°
3
28%
 07:39     19:17    Daglengte: 11:38 Vrijdag 02 Okt
02:00
18°
1014.8 hPa 0.1 mm 12.7°
2
23%
08:00
17°
1013.9 hPa 0.2 mm 12.4°
1
29%
14:00
21°
1013.8 hPa 0.5 mm 13.3°
1
30%
20:00
20°
1013.0 hPa 1.5 mm 14.3°
1
29%
 07:40     19:15    Daglengte: 11:35 Zaterdag 03 Okt
02:00
18°
1013.3 hPa 0.9 mm 14.0°
1
35%
08:00
18°
1012.8 hPa 0.5 mm 13.6°
1
36%
14:00
21°
1013.1 hPa 1.2 mm 14.2°
0
32%
20:00
20°
1013.1 hPa 1.4 mm 14.3°
2
31%
 07:41     19:13    Daglengte: 11:32 Zondag 04 Okt
02:00
18°
1014.3 hPa 1.0 mm 13.8°
2
30%
08:00
17°
1014.6 hPa 1.5 mm 13.1°
2
34%
14:00
21°
1015.2 hPa 0.5 mm 13.5°
2
33%
20:00
20°
1015.0 hPa 0.3 mm 13.9°
2
34%
 07:42     19:11    Daglengte: 11:29 Maandag 05 Okt
02:00
19°
1015.6 hPa 0.6 mm 13.7°
2
31%
08:00
18°
1015.4 hPa 0.8 mm 12.7°
2
30%
14:00
22°
1015.8 hPa 0.7 mm 13.1°
2
23%
  CAPE Lifted Index Hail Supercell Tornado SRH 3km CL BTM PRES CL TOP PRES Swiss DWD icon SMHI TS
 07:25     19:38    Daglengte: 12:13 Vandaag
15:00 1981 J/kg -5.9 K 0 % 0 % 0 % 0 m²/s² 0 0 -3.92 95
16:00 1932 J/kg -6.4 K 0 % 0 % 0 % 0 m²/s² 0 0 -4.36 95
17:00 1721 J/kg -5.7 K 0 % 0 % 0 % 0 m²/s² 0 0 -3.6 80
18:00 1731 J/kg -5.6 K 0 % 0 % 0 % 0 m²/s² 0 0 -3.5 80
19:00 1765 J/kg -5.4 K 0 % 0 % 0 % 0 m²/s² 0 0 -3.42 80
20:00 1840 J/kg -5.5 K 0 % 0 % 0 % 0 m²/s² 0 0 -3.31 1
21:00 1834 J/kg -5.2 K 0 % 0 % 0 % 0 m²/s² 0 0 -3.16 2
22:00 1329 J/kg -4.4 K 0 % 0 % 0 % 0 m²/s² 0 0 -2.75 2
23:00 904 J/kg -3.4 K 0 % 0 % 0 % 0 m²/s² 0 0 -2.77 1
 07:26     19:36    Daglengte: 12:10 Morgen
00:00 558 J/kg -2.2 K 0 % 0 % 0 % 0 m²/s² 0 0 -0.55 1
01:00 613 J/kg -2.4 K 0 % 0 % 0 % 0 m²/s² 0 0 -0.36 1
02:00 915 J/kg -3.3 K 0 % 0 % 0 % 0 m²/s² 0 0 -0.48 2
03:00 1144 J/kg -3.5 K 0 % 0 % 0 % 0 m²/s² 0 0 -1.07 1
04:00 1322 J/kg -4.1 K 0 % 0 % 0 % 0 m²/s² 0 0 -2.33 2
05:00 1397 J/kg -4.6 K 0 % 0 % 0 % 0 m²/s² 0 0 -3.01 3
06:00 1456 J/kg -4.6 K 0 % 0 % 0 % 0 m²/s² 0 0 -3.19 3
07:00 1432 J/kg -4.5 K 0 % 0 % 0 % 0 m²/s² 0 0 -3.54 3
08:00 1264 J/kg -4.3 K 0 % 0 % 0 % 0 m²/s² 0 0 -3.31 3
09:00 1188 J/kg -4.0 K 0 % 0 % 0 % 0 m²/s² 0 0 -2.65 3
10:00 1156 J/kg -4.1 K 0 % 0 % 0 % 0 m²/s² 0 0 -2.45 3
11:00 1114 J/kg -4.1 K 0 % 0 % 0 % 0 m²/s² 0 0 -2.69 3
12:00 962 J/kg -3.7 K 0 % 0 % 0 % 0 m²/s² 0 0 -1.99 2
13:00 767 J/kg -3.1 K 0 % 0 % 0 % 0 m²/s² 0 0 -1.69 2
14:00 761 J/kg -3.1 K 0 % 0 % 0 % 0 m²/s² 0 0 -1.75 2
15:00 808 J/kg -3.3 K 0 % 0 % 0 % 0 m²/s² 0 0 -1.89 3
16:00 886 J/kg -3.6 K 0 % 0 % 0 % 0 m²/s² 0 0 -2.55 3
17:00 957 J/kg -3.7 K 0 % 0 % 0 % 0 m²/s² 0 0 -2.53 2
18:00 938 J/kg -3.8 K 0 % 0 % 0 % 0 m²/s² 0 0 -2.69 2
19:00 993 J/kg -3.9 K 0 % 0 % 0 % 0 m²/s² 0 0 -2.94 3
20:00 1056 J/kg -3.9 K 0 % 0 % 0 % 0 m²/s² 0 0 -2.85 2
21:00 940 J/kg -3.6 K 0 % 0 % 0 % 0 m²/s² 0 0 -2.55 2
22:00 884 J/kg -3.4 K 0 % 0 % 0 % 0 m²/s² 0 0 -2.56 2
23:00 838 J/kg -3.5 K 0 % 0 % 0 % 0 m²/s² 0 0 -2.3 2
 07:28     19:35    Daglengte: 12:07 Dinsdag 22 Sep
00:00 1014 J/kg -4.0 K 0 % 0 % 0 % 0 m²/s² 0 0 -2.8 2
01:00 1141 J/kg -4.4 K 0 % 0 % 0 % 0 m²/s² 0 0 -3.2 3
02:00 1156 J/kg -4.5 K 0 % 0 % 0 % 0 m²/s² 0 0 -3.54 3
03:00 946 J/kg -4.2 K 0 % 0 % 0 % 0 m²/s² 0 0 -3.36 3
04:00 905 J/kg -3.1 K 0 % 0 % 0 % 0 m²/s² 0 0 -2.59 3
05:00 988 J/kg -3.2 K 0 % 0 % 0 % 0 m²/s² 0 0 -3.2 3
06:00 483 J/kg -2.0 K 0 % 0 % 0 % 0 m²/s² 0 0 -1.61 3
07:00 95 J/kg -0.8 K 0 % 0 % 0 % 0 m²/s² 0 0 -0.2 3
08:00 267 J/kg -1.6 K 0 % 0 % 0 % 0 m²/s² 0 0 -1.21 3
09:00 376 J/kg -2.5 K 0 % 0 % 0 % 0 m²/s² 0 0 -2.02 3
10:00 649 J/kg -3.0 K 0 % 0 % 0 % 0 m²/s² 0 0 -2.79 3
11:00 1162 J/kg -4.1 K 0 % 0 % 0 % 0 m²/s² 0 0 -3.89 80
12:00 1476 J/kg -4.9 K 0 % 0 % 0 % 0 m²/s² 0 0 -4.33 80
13:00 1660 J/kg -5.5 K 0 % 0 % 0 % 0 m²/s² 0 0 -4.99 80
14:00 1580 J/kg -5.3 K 0 % 0 % 0 % 0 m²/s² 0 0 -4.16 80
15:00 1301 J/kg -4.5 K 0 % 0 % 0 % 0 m²/s² 0 0 -2.55 3
16:00 1066 J/kg -3.8 K 0 % 0 % 0 % 0 m²/s² 0 0 -1.73 3
17:00 936 J/kg -3.5 K 0 % 0 % 0 % 0 m²/s² 0 0 -1.55 3
18:00 1100 J/kg -3.9 K 0 % 0 % 0 % 0 m²/s² 0 0 -2.37 3
19:00 1191 J/kg -4.3 K 0 % 0 % 0 % 0 m²/s² 0 0 -2.47 95
20:00 1237 J/kg -4.0 K 0 % 0 % 0 % 0 m²/s² 0 0 -1.78 80
21:00 1248 J/kg -3.8 K 0 % 0 % 0 % 0 m²/s² 0 0 -2.27 80
22:00 1350 J/kg -4.3 K 0 % 0 % 0 % 0 m²/s² 0 0 -3.1 80
23:00 1427 J/kg -4.5 K 0 % 0 % 0 % 0 m²/s² 0 0 -3.69 80
 07:29     19:33    Daglengte: 12:04 Woensdag 23 Sep
00:00 1544 J/kg -4.9 K 0 % 0 % 0 % 0 m²/s² 0 0 -4.09 80
01:00 1565 J/kg -5.0 K 0 % 0 % 0 % 0 m²/s² 0 0 -4.25 3
02:00 1692 J/kg -5.4 K 0 % 0 % 0 % 0 m²/s² 0 0 -4.65 3
03:00 1674 J/kg -5.7 K 0 % 0 % 0 % 0 m²/s² 0 0 -4.56 45
04:00 1716 J/kg -6.2 K 0 % 0 % 0 % 0 m²/s² 0 0 -5.21 3
05:00 1753 J/kg -6.3 K 0 % 0 % 0 % 0 m²/s² 0 0 -4.71 1
06:00 1740 J/kg -6.4 K 0 % 0 % 0 % 0 m²/s² 0 0 -4.87 1
07:00 1511 J/kg -5.7 K 0 % 0 % 0 % 0 m²/s² 0 0 -4.41 1
08:00 1115 J/kg -4.4 K 0 % 0 % 0 % 0 m²/s² 0 0 -2.45 2
09:00 714 J/kg -3.2 K 0 % 0 % 0 % 0 m²/s² 0 0 -0.47 1
10:00 381 J/kg -2.0 K 0 % 0 % 0 % 0 m²/s² 0 0 0.73 1
11:00 208 J/kg -1.1 K 0 % 0 % 0 % 0 m²/s² 0 0 2.2 1
12:00 173 J/kg -0.7 K 0 % 0 % 0 % 0 m²/s² 0 0 2.03 1
13:00 212 J/kg -0.9 K 0 % 0 % 0 % 0 m²/s² 0 0 1.83 2
14:00 262 J/kg -1.2 K 0 % 0 % 0 % 0 m²/s² 0 0 2.49 2
Temp Baro Wind Neerslag
  EWN Forecast EWN WRFDA DWD ICON FMI HIRLAM MET Norway GFS
 07:25     19:38    Daglengte: 12:13 Vandaag
17:00 22.8° 1012.9 hPa 1.9 m/s 0.8 mm 23.8° 1011.9 hPa 2.1 m/s 0.2 mm 21.5° 1013.6 hPa 1.8 m/s 2.5 mm 23.7° 1011.9 hPa 0.7 m/s 0.0 mm 22.8° 1013.0 hPa 1.7 m/s 24.6° 1013.3 hPa 3.1 m/s
20:00 21.3° 1013.6 hPa 2.0 m/s 0.2 mm 23.3° 1012.1 hPa 4.1 m/s 0.3 mm 21.1° 1013.8 hPa 0.9 m/s 1.4 mm 22.5° 1012.5 hPa 2.5 m/s 0.0 mm 20.8° 1014.1 hPa 1.7 m/s 24.0° 1013.4 hPa 0.9 m/s
23:00 20.2° 1015.0 hPa 1.9 m/s 0.7 mm 22.3° 1014.4 hPa 4.8 m/s 2.7 mm 20.7° 1015.0 hPa 0.9 m/s 0.2 mm 20.8° 1014.0 hPa 2.6 m/s 0.0 mm 19.6° 1015.4 hPa 1.3 m/s 23.7° 1014.9 hPa 3.1 m/s
 07:26     19:36    Daglengte: 12:10 Morgen
02:00 19.3° 1014.9 hPa 1.6 m/s 0.0 mm 22.2° 1013.7 hPa 2.2 m/s 8.9 mm 19.4° 1015.2 hPa 1.4 m/s 0.0 mm 19.4° 1013.8 hPa 1.5 m/s 0.0 mm 18.4° 1015.1 hPa 1.1 m/s 23.4° 1014.7 hPa 3.1 m/s
05:00 18.7° 1014.3 hPa 2.0 m/s 0.0 mm 22.1° 1013.3 hPa 1.2 m/s 9.0 mm 18.4° 1014.5 hPa 2.0 m/s 0.0 mm 18.8° 1013.1 hPa 2.6 m/s 0.0 mm 18.3° 1014.5 hPa 1.4 m/s 22.8° 1014.2 hPa 0.7 m/s
08:00 18.5° 1014.6 hPa 1.9 m/s 0.0 mm 21.8° 1013.8 hPa 0.5 m/s 9.0 mm 18.5° 1014.5 hPa 1.9 m/s 0.0 mm 18.6° 1013.6 hPa 2.5 m/s 0.0 mm 18.2° 1014.9 hPa 1.1 m/s 22.5° 1014.5 hPa 0.8 m/s
11:00 22.7° 1015.4 hPa 1.3 m/s 0.0 mm 23.3° 1014.7 hPa 2.2 m/s 9.0 mm 22.0° 1015.4 hPa 0.5 m/s 0.0 mm 23.1° 1014.2 hPa 1.2 m/s 0.0 mm 22.7° 1015.6 hPa 2.1 m/s 24.0° 1015.2 hPa 1.0 m/s
14:00 23.7° 1015.3 hPa 3.2 m/s 0.0 mm 23.8° 1014.8 hPa 4.3 m/s 9.0 mm 24.0° 1015.1 hPa 3.3 m/s 0.0 mm 24.5° 1013.9 hPa 3.2 m/s 0.0 mm 22.6° 1015.8 hPa 2.9 m/s 24.8° 1015.1 hPa 3.0 m/s
17:00 22.6° 1014.4 hPa 3.1 m/s 1.1 mm 23.5° 1013.7 hPa 4.5 m/s 9.0 mm 22.9° 1014.2 hPa 3.4 m/s 0.0 mm 23.8° 1013.1 hPa 3.9 m/s 0.0 mm 22.2° 1014.9 hPa 2.6 m/s 24.6° 1014.3 hPa 2.9 m/s
20:00 21.2° 1014.7 hPa 1.7 m/s 0.0 mm 22.8° 1013.6 hPa 4.2 m/s 9.0 mm 21.8° 1014.9 hPa 1.9 m/s 0.0 mm 22.4° 1013.2 hPa 2.2 m/s 0.0 mm 19.4° 1014.9 hPa 1.3 m/s 23.5° 1014.1 hPa 3.0 m/s
23:00 20.3° 1015.4 hPa 1.3 m/s 0.0 mm 22.6° 1014.4 hPa 2.8 m/s 9.0 mm 20.4° 1015.3 hPa 1.5 m/s 0.0 mm 20.0° 1014.2 hPa 0.2 m/s 0.0 mm 20.2° 1015.9 hPa 0.9 m/s 23.0° 1015.2 hPa 3.1 m/s
 07:28     19:35    Daglengte: 12:07 Dinsdag 22 Sep
02:00 19.1° 1014.6 hPa 1.4 m/s 1.2 mm 21.8° 1013.6 hPa 2.6 m/s 9.0 mm 19.0° 1014.6 hPa 1.6 m/s 0.0 mm 19.0° 1013.1 hPa 1.1 m/s 0.0 mm 19.0° 1015.0 hPa 0.6 m/s 22.7° 1014.4 hPa 1.1 m/s
05:00 18.5° 1013.8 hPa 1.7 m/s 1.3 mm 20.5° 1012.4 hPa 3.5 m/s 10.2 mm 19.1° 1014.0 hPa 1.6 m/s 0.0 mm 18.4° 1012.0 hPa 1.4 m/s 0.0 mm 18.2° 1014.3 hPa 1.5 m/s 22.4° 1013.2 hPa 1.3 m/s
08:00 18.1° 1013.7 hPa 1.9 m/s 0.0 mm 19.4° 1012.6 hPa 5.2 m/s 12.1 mm 18.9° 1013.8 hPa 1.9 m/s 0.0 mm 17.9° 1012.2 hPa 1.0 m/s 0.0 mm 17.9° 1013.9 hPa 1.4 m/s 20.3° 1013.5 hPa 3.1 m/s
11:00 20.4° 1014.7 hPa 2.5 m/s 2.8 mm 21.4° 1012.6 hPa 3.0 m/s 12.2 mm 20.5° 1014.4 hPa 1.5 m/s 1.6 mm 19.4° 1015.0 hPa 2.7 m/s 21.5° 1013.5 hPa 1.5 m/s
14:00 20.9° 1013.8 hPa 2.3 m/s 5.2 mm 22.3° 1012.2 hPa 3.7 m/s 20.1 mm 21.1° 1013.6 hPa 1.9 m/s 2.1 mm 19.7° 1013.9 hPa 2.2 m/s 21.4° 1013.0 hPa 1.6 m/s
17:00 20.7° 1012.3 hPa 1.8 m/s 5.2 mm 22.6° 1010.1 hPa 4.1 m/s 24.2 mm 20.8° 1012.2 hPa 1.1 m/s 1.7 mm 20.3° 1012.4 hPa 1.6 m/s 22.1° 1011.3 hPa 2.8 m/s
20:00 19.3° 1012.2 hPa 1.1 m/s 5.7 mm 21.9° 1010.3 hPa 4.9 m/s 24.2 mm 19.6° 1012.4 hPa 0.8 m/s 1.4 mm 18.9° 1012.3 hPa 0.7 m/s 21.8° 1011.6 hPa 2.3 m/s
23:00 19.0° 1013.1 hPa 1.5 m/s 6.5 mm 22.1° 1010.7 hPa 4.3 m/s 24.2 mm 18.8° 1013.0 hPa 0.4 m/s 3.0 mm 18.9° 1013.2 hPa 1.5 m/s 22.1° 1011.9 hPa 3.1 m/s
 07:29     19:33    Daglengte: 12:04 Woensdag 23 Sep
02:00 18.4° 1012.5 hPa 2.4 m/s 4.3 mm 22.1° 1010.9 hPa 5.6 m/s 25.2 mm 18.4° 1012.3 hPa 0.9 m/s 1.6 mm 18.2° 1012.6 hPa 2.3 m/s 21.8° 1011.5 hPa 1.8 m/s
05:00 18.2° 1011.6 hPa 2.1 m/s 6.6 mm 21.5° 1008.7 hPa 4.3 m/s 27.5 mm 17.5° 1011.0 hPa 1.9 m/s 0.0 mm 18.2° 1011.9 hPa 1.4 m/s 21.6° 1010.5 hPa 1.6 m/s
08:00 18.2° 1011.1 hPa 1.9 m/s 0.0 mm 21.0° 1009.1 hPa 3.1 m/s 27.5 mm 17.2° 1011.1 hPa 2.0 m/s 0.0 mm 18.2° 1011.1 hPa 0.5 m/s 21.6° 1010.8 hPa 1.5 m/s
11:00 20.7° 1011.0 hPa 1.8 m/s 0.0 mm 22.5° 1009.6 hPa 3.1 m/s 27.5 mm 21.0° 1011.2 hPa 0.4 m/s 0.0 mm 20.1° 1011.2 hPa 1.9 m/s 23.0° 1010.6 hPa 1.5 m/s
14:00 22.3° 1010.9 hPa 3.4 m/s 0.0 mm 23.4° 1010.0 hPa 4.6 m/s 27.5 mm 22.5° 1010.6 hPa 2.5 m/s 0.0 mm 22.0° 1011.3 hPa 3.4 m/s 23.8° 1010.5 hPa 3.5 m/s
17:00 20.3° 1010.5 hPa 2.4 m/s 15.3 mm 20.0° 1010.6 hPa 2.3 m/s 24.1° 1009.4 hPa 4.2 m/s 15.3 mm
20:00 19.3° 1010.3 hPa 1.8 m/s 15.3 mm 19.0° 1010.3 hPa 1.7 m/s 22.8° 1009.7 hPa 2.7 m/s 15.3 mm
23:00 19.2° 1010.9 hPa 1.5 m/s 15.3 mm 18.9° 1010.9 hPa 1.6 m/s 22.6° 1011.5 hPa 0.6 m/s 15.3 mm
 07:30     19:31    Daglengte: 12:01 Donderdag 24 Sep
02:00 19.1° 1011.5 hPa 1.5 m/s 15.3 mm 18.8° 1011.5 hPa 1.5 m/s 22.5° 1011.4 hPa 1.7 m/s 15.3 mm
05:00 18.8° 1011.2 hPa 2.0 m/s 15.3 mm 18.5° 1011.2 hPa 1.9 m/s 22.4° 1010.4 hPa 2.7 m/s 15.3 mm
08:00 18.4° 1011.0 hPa 2.5 m/s 15.4 mm 18.1° 1011.0 hPa 2.4 m/s 22.2° 1010.8 hPa 3.8 m/s 15.4 mm
11:00 21.1° 1011.2 hPa 3.8 m/s 16.4 mm 20.8° 1011.2 hPa 3.7 m/s 23.9° 1011.0 hPa 6.0 m/s 16.4 mm
14:00 23.4° 1011.4 hPa 5.2 m/s 20.7 mm 23.5° 1011.4 hPa 4.9 m/s 22.4° 1011.0 hPa 8.0 m/s 20.7 mm
17:00 22.3° 1010.6 hPa 4.5 m/s 24.4 mm 22.4° 1010.7 hPa 4.5 m/s 21.6° 1009.4 hPa 5.1 m/s 24.4 mm
20:00 21.3° 1009.9 hPa 4.0 m/s 26.7 mm 21.3° 1010.0 hPa 4.0 m/s 21.4° 1009.2 hPa 4.3 m/s 26.7 mm
23:00 19.3° 1010.3 hPa 5.0 m/s 31.9 mm 19.1° 1010.2 hPa 5.0 m/s 21.0° 1010.3 hPa 5.3 m/s 31.9 mm
 07:31     19:29    Daglengte: 11:58 Vrijdag 25 Sep
02:00 17.2° 1010.5 hPa 6.1 m/s 32.8 mm 17.0° 1010.5 hPa 5.9 m/s 19.0° 1010.4 hPa 8.2 m/s 32.8 mm
05:00 16.4° 1009.4 hPa 6.4 m/s 33.0 mm 16.1° 1009.4 hPa 6.2 m/s 19.4° 1010.1 hPa 9.2 m/s 33.0 mm
08:00 15.6° 1008.4 hPa 6.6 m/s 33.0 mm 15.3° 1008.2 hPa 6.4 m/s 18.3° 1010.8 hPa 9.0 m/s 33.0 mm
11:00 16.5° 1008.5 hPa 8.8 m/s 33.0 mm 16.2° 1008.2 hPa 8.4 m/s 19.7° 1012.2 hPa 12.4 m/s 33.0 mm
14:00 17.3° 1008.5 hPa 10.6 m/s 33.0 mm 17.1° 1008.2 hPa 10.5 m/s 19.8° 1012.2 hPa 11.9 m/s 33.0 mm
17:00 16.5° 1008.9 hPa 11.1 m/s 33.0 mm 16.2° 1008.7 hPa 10.8 m/s 18.8° 1011.9 hPa 13.6 m/s 33.0 mm
20:00 15.5° 1009.4 hPa 11.5 m/s 33.0 mm 15.4° 1009.1 hPa 11.2 m/s 16.6° 1012.5 hPa 15.2 m/s 33.0 mm
23:00 14.1° 1010.0 hPa 11.1 m/s 33.0 mm 13.9° 1009.7 hPa 11.0 m/s 15.2° 1013.6 hPa 12.7 m/s 33.0 mm
 07:32     19:27    Daglengte: 11:55 Zaterdag 26 Sep
02:00 12.6° 1010.5 hPa 10.9 m/s 33.0 mm 12.5° 1010.2 hPa 10.8 m/s 13.9° 1013.8 hPa 11.7 m/s 33.0 mm
05:00 11.8° 1009.7 hPa 10.5 m/s 33.0 mm 11.7° 1009.4 hPa 10.5 m/s 13.4° 1013.2 hPa 10.3 m/s 33.0 mm
08:00 11.0° 1009.0 hPa 10.2 m/s 33.0 mm 10.8° 1008.5 hPa 10.2 m/s 12.7° 1014.6 hPa 10.6 m/s 33.0 mm
11:00 13.5° 1008.0 hPa 10.7 m/s 33.0 mm 13.5° 1007.4 hPa 10.7 m/s 13.7° 1014.9 hPa 11.0 m/s 33.0 mm
14:00 16.2° 1007.0 hPa 11.2 m/s 33.0 mm 16.2° 1006.3 hPa 11.2 m/s 16.6° 1014.4 hPa 11.0 m/s 33.0 mm
17:00 15.7° 1006.6 hPa 8.6 m/s 33.0 mm 15.5° 1006.0 hPa 8.6 m/s 17.9° 1013.2 hPa 9.3 m/s 33.0 mm
20:00 15.0° 1006.5 hPa 6.1 m/s 33.0 mm 14.8° 1005.8 hPa 5.9 m/s 17.2° 1014.1 hPa 8.5 m/s 33.0 mm
23:00 14.0° 1006.4 hPa 6.8 m/s 33.0 mm 13.8° 1005.6 hPa 6.6 m/s 16.5° 1015.4 hPa 8.4 m/s 33.0 mm
 07:33     19:25    Daglengte: 11:52 Zondag 27 Sep
02:00 12.9° 1006.2 hPa 7.4 m/s 33.0 mm 12.7° 1005.4 hPa 7.3 m/s 15.5° 1014.8 hPa 8.5 m/s 33.0 mm
05:00 11.7° 1006.9 hPa 7.7 m/s 33.0 mm 11.4° 1006.4 hPa 7.8 m/s 14.9° 1012.9 hPa 6.7 m/s 33.0 mm
08:00 10.6° 1007.8 hPa 8.0 m/s 33.0 mm 10.2° 1007.4 hPa 8.3 m/s 14.6° 1011.8 hPa 4.2 m/s 33.0 mm
11:00 13.8° 1009.1 hPa 7.9 m/s 35.8 mm 13.9° 1008.8 hPa 8.4 m/s 11.6° 1011.4 hPa 3.5 m/s 35.8 mm
14:00 17.3° 1010.3 hPa 8.0 m/s 38.9 mm 17.7° 1010.3 hPa 8.4 m/s 12.3° 1010.1 hPa 3.9 m/s 38.9 mm
20:00 14.5° 1011.5 hPa 7.6 m/s 39.2 mm 14.4° 1011.7 hPa 7.8 m/s 15.0° 1009.7 hPa 5.1 m/s 39.2 mm
 07:34     19:24    Daglengte: 11:50 Maandag 28 Sep
02:00 11.7° 1013.9 hPa 4.2 m/s 39.2 mm 11.4° 1014.1 hPa 4.2 m/s 14.5° 1011.7 hPa 4.6 m/s 39.2 mm
08:00 10.2° 1013.7 hPa 3.4 m/s 39.2 mm 9.7° 1013.8 hPa 3.4 m/s 15.2° 1012.4 hPa 3.3 m/s 39.2 mm
14:00 20.0° 1013.9 hPa 3.7 m/s 39.2 mm 20.1° 1013.9 hPa 3.5 m/s 19.3° 1013.7 hPa 5.9 m/s 39.2 mm
20:00 16.4° 1014.4 hPa 3.1 m/s 39.2 mm 15.9° 1014.4 hPa 2.9 m/s 21.5° 1014.2 hPa 5.1 m/s 39.2 mm
 07:35     19:22    Daglengte: 11:47 Dinsdag 29 Sep
02:00 12.0° 1014.8 hPa 1.4 m/s 39.2 mm 11.3° 1014.7 hPa 1.0 m/s 20.2° 1015.7 hPa 5.7 m/s 39.2 mm
08:00 10.3° 1015.3 hPa 1.1 m/s 39.2 mm 9.5° 1015.2 hPa 0.8 m/s 19.2° 1015.8 hPa 4.7 m/s 39.2 mm
14:00 18.6° 1016.2 hPa 3.1 m/s 39.2 mm 18.2° 1016.2 hPa 2.9 m/s 23.0° 1015.9 hPa 5.0 m/s 39.2 mm
20:00 16.1° 1016.1 hPa 1.6 m/s 39.2 mm 15.6° 1016.2 hPa 1.3 m/s 22.1° 1015.0 hPa 4.3 m/s 39.2 mm
 07:37     19:20    Daglengte: 11:43 Woensdag 30 Sep
02:00 21.0° 1015.1 hPa 2.3 m/s 39.2 mm 21.0° 1015.1 hPa 2.3 m/s 39.2 mm
08:00 19.9° 1014.0 hPa 2.4 m/s 39.2 mm 19.9° 1014.0 hPa 2.4 m/s 39.2 mm
14:00 21.3° 1015.7 hPa 2.8 m/s 0.5 mm
20:00 19.8° 1014.9 hPa 3.1 m/s 0.6 mm
 07:38     19:18    Daglengte: 11:40 Donderdag 01 Okt
02:00 18.0° 1015.3 hPa 3.1 m/s 0.9 mm
08:00 16.9° 1014.7 hPa 2.7 m/s 0.4 mm
14:00 21.0° 1014.7 hPa 2.9 m/s 0.5 mm
20:00 19.7° 1014.2 hPa 3.4 m/s 0.7 mm
 07:39     19:17    Daglengte: 11:38 Vrijdag 02 Okt
02:00 17.9° 1014.8 hPa 2.4 m/s 0.1 mm
08:00 17.4° 1013.9 hPa 1.1 m/s 0.2 mm
14:00 21.3° 1013.8 hPa 0.9 m/s 0.5 mm
20:00 19.8° 1013.0 hPa 0.6 m/s 1.5 mm
 07:40     19:15    Daglengte: 11:35 Zaterdag 03 Okt
02:00 18.5° 1013.3 hPa 1.2 m/s 0.9 mm
08:00 17.8° 1012.8 hPa 1.4 m/s 0.5 mm
14:00 21.4° 1013.1 hPa 0.4 m/s 1.2 mm
20:00 19.8° 1013.1 hPa 1.6 m/s 1.4 mm
 07:41     19:13    Daglengte: 11:32 Zondag 04 Okt
02:00 18.0° 1014.3 hPa 2.0 m/s 1.0 mm
08:00 17.3° 1014.6 hPa 2.2 m/s 1.5 mm
14:00 21.5° 1015.2 hPa 1.6 m/s 0.5 mm
20:00 20.3° 1015.0 hPa 2.1 m/s 0.3 mm
 07:42     19:11    Daglengte: 11:29 Maandag 05 Okt
02:00 18.7° 1015.6 hPa 1.8 m/s 0.6 mm
08:00 17.7° 1015.4 hPa 2.2 m/s 0.8 mm
14:00 21.9° 1015.8 hPa 2.3 m/s 0.7 mm
FMI Hirlam - 7.5 km EWN WRFDA - 12 km DWD ICON - 7 km GFS - 25 km Basiskaart






























































Updatetijd (Europe/Brussels) Resolutie Lengte Stap
FMI Hirlam 13:45, 19:45, 01:45, 07:45 7.5 km 49h 1h
EWN WRFDA 10:15, 16:15, 22:15, 04:15 12 km 73h 1h
DWD ICON 11:45, 17:45, 23:45, 05:45 7 km 75h 1h
GFS 14:00, 20:00, 02:00, 08:00 25 km 237h 3h
30+ mm
25-30 mm
20-25 mm
15-20 mm
10-15 mm
6-10 mm
4-6 mm
2-4 mm
1-2 mm
0.5-1 mm
0.2-0.5 mm
0.1-0.2 mm
30+ mm
25-30 mm
20-25 mm
15-20 mm
10-15 mm
6-10 mm
4-6 mm
2-4 mm
1-2 mm
0.5-1 mm
0.2-0.5 mm
0.1-0.2 mm
Sneeuwval
Natte sneeuw
Hagel
Vorst
30+ mm
25-30 mm
20-25 mm
15-20 mm
10-15 mm
6-10 mm
4-6 mm
2-4 mm
1-2 mm
0.5-1 mm
0.2-0.5 mm
0.1-0.2 mm
Sneeuwval
Natte sneeuw
Hagel
Vorst
Onweer
50 mm
40 mm
30 mm
26 mm
22 mm
18 mm
14 mm
10 mm
9 mm
8 mm
7 mm
6 mm
5 mm
4.5 mm
4 mm
3.5 mm
3 mm
2.5 mm
2 mm
1.5 mm
1 mm
0.8 mm
0.6 mm
0.4 mm
0.2 mm
0.05 mm
35°
30°
25°
20°
15°
10°
-5°
-10°
-15°
-20°
-25°
-30°
-35°
33> m/s
29 m/s
25 m/s
21 m/s
17 m/s
14 m/s
11 m/s
8 m/s
5 m/s
3 m/s
0 m/s
2600 J/kg
2400 J/kg
2200 J/kg
2000 J/kg
1800 J/kg
1600 J/kg
1400 J/kg
1200 J/kg
1000 J/kg
800 J/kg
600 J/kg
400 J/kg
200 J/kg
70 dBZ
65 dBZ
60 dBZ
55 dBZ
50 dBZ
45 dBZ
40 dBZ
35 dBZ
30 dBZ
25 dBZ
20 dBZ
15 dBZ
10 dBZ
5 dBZ
-1 K
-2 K
-3 K
-4 K
-5 K
-6 K
-7 K
-8 K
-9 K
950 m²/s²
900 m²/s²
850 m²/s²
800 m²/s²
750 m²/s²
700 m²/s²
650 m²/s²
600 m²/s²
550 m²/s²
500 m²/s²
450 m²/s²
400 m²/s²
350 m²/s²
300 m²/s²
250 m²/s²
200 m²/s²
150 m²/s²
100 m²/s²
46 m/s
44 m/s
42 m/s
40 m/s
38 m/s
36 m/s
34 m/s
32 m/s
30 m/s
28 m/s
26 m/s
24 m/s
22 m/s
20 m/s
16 m/s
12 m/s
8 m/s
4 m/s
30 m/s
28 m/s
26 m/s
24 m/s
22 m/s
20 m/s
18 m/s
16 m/s
14 m/s
12 m/s
10 m/s
8 m/s
6 m/s
4 m/s
2 m/s
3.0
2.8
2.6
2.4
2.2
2.0
1.8
1.6
1.4
1.2
1.0
0.8
0.6
0.4
0.2
15
14
13
12
11
10
9
8
7
6
5
4
3
2
1
90%
80%
70%
60%
50%
40%
30%
20%
10%
42
40
38
36
34
32
30
28
26
24
22
20
18
16
14
12
90+ cm
80-90 cm
70-80 cm
60-70 cm
50-60 cm
40-50 cm
30-40 cm
20-30 cm
10-20 cm
1-10 cm
Sneeuwval
Natte sneeuw
Regen
>120 mm
115 mm
110 mm
105 mm
100 mm
95 mm
90 mm
85 mm
80 mm
75 mm
70 mm
65 mm
60 mm
55 mm
50 mm
45 mm
45 mm
40 mm
35 mm
30 mm
25 mm
20 mm
15 mm
10 mm
5 mm
0.1 mm
960 hPa
880 hPa